TimePDT,TemperatureF,Dew PointF,Humidity,Sea Level PressureIn,VisibilityMPH,Wind Direction,Wind SpeedMPH,Gust SpeedMPH,PrecipitationIn,Events,Conditions,WindDirDegrees,DateUTC
12:15 AM,46.4,37.4,71,30.15,10.0,Calm,Calm,-,N/A,,Clear,0,2013-10-26 07:15:00
12:35 AM,46.4,37.4,71,30.15,10.0,Calm,Calm,-,N/A,,Clear,0,2013-10-26 07:35:00
12:55 AM,46.4,37.4,71,30.15,10.0,Calm,Calm,-,N/A,,Clear,0,2013-10-26 07:55:00
1:15 AM,46.4,37.4,71,30.15,10.0,Calm,Calm,-,N/A,,Clear,0,2013-10-26 08:15:00
1:35 AM,46.4,37.4,71,30.15,10.0,Calm,Calm,-,N/A,,Clear,0,2013-10-26 08:35:00
1:55 AM,46.4,37.4,71,30.15,10.0,Calm,Calm,-,N/A,,Clear,0,2013-10-26 08:55:00
2:15 AM,46.4,37.4,71,30.16,10.0,Calm,Calm,-,N/A,,Clear,0,2013-10-26 09:15:00
2:35 AM,46.4,37.4,71,30.16,10.0,Calm,Calm,-,N/A,,Clear,0,2013-10-26 09:35:00
2:55 AM,44.6,37.4,76,30.16,10.0,Calm,Calm,-,N/A,,Clear,0,2013-10-26 09:55:00
3:15 AM,44.6,37.4,76,30.16,10.0,Calm,Calm,-,N/A,,Clear,0,2013-10-26 10:15:00
3:35 AM,44.6,37.4,76,30.16,10.0,Calm,Calm,-,N/A,,Clear,0,2013-10-26 10:35:00
3:55 AM,44.6,37.4,76,30.15,10.0,Calm,Calm,-,N/A,,Clear,0,2013-10-26 10:55:00
4:15 AM,44.6,37.4,76,30.15,10.0,Calm,Calm,-,N/A,,Clear,0,2013-10-26 11:15:00
4:35 AM,44.6,37.4,76,30.15,10.0,Calm,Calm,-,N/A,,Clear,0,2013-10-26 11:35:00
4:55 AM,44.6,37.4,76,30.15,10.0,Calm,Calm,-,N/A,,Clear,0,2013-10-26 11:55:00
5:15 AM,44.6,37.4,76,30.15,10.0,Calm,Calm,-,N/A,,Clear,0,2013-10-26 12:15:00
5:35 AM,44.6,37.4,76,30.15,10.0,Calm,Calm,-,N/A,,Clear,0,2013-10-26 12:35:00
5:55 AM,44.6,35.6,71,30.15,10.0,Calm,Calm,-,N/A,,Clear,0,2013-10-26 12:55:00
6:15 AM,44.6,35.6,71,30.15,10.0,Calm,Calm,-,N/A,,Clear,0,2013-10-26 13:15:00
6:35 AM,44.6,35.6,71,30.15,10.0,Calm,Calm,-,N/A,,Clear,0,2013-10-26 13:35:00
6:55 AM,44.6,35.6,71,30.15,10.0,Calm,Calm,-,N/A,,Clear,0,2013-10-26 13:55:00
7:15 AM,44.6,35.6,71,30.15,10.0,Calm,Calm,-,N/A,,Clear,0,2013-10-26 14:15:00
7:35 AM,44.6,35.6,71,30.15,10.0,Calm,Calm,-,N/A,,Clear,0,2013-10-26 14:35:00
7:55 AM,44.6,35.6,71,30.16,10.0,Calm,Calm,-,N/A,,Clear,0,2013-10-26 14:55:00
8:15 AM,46.4,35.6,66,30.16,10.0,Calm,Calm,-,N/A,,Clear,0,2013-10-26 15:15:00
8:35 AM,50.0,37.4,62,30.17,10.0,Calm,Calm,-,N/A,,Clear,0,2013-10-26 15:35:00
8:55 AM,55.4,39.2,54,30.17,10.0,Calm,Calm,-,N/A,,Clear,0,2013-10-26 15:55:00
9:15 AM,59.0,39.2,48,30.17,10.0,Calm,Calm,-,N/A,,Clear,0,2013-10-26 16:15:00
9:35 AM,64.4,39.2,40,30.17,10.0,Calm,Calm,-,N/A,,Clear,0,2013-10-26 16:35:00
9:55 AM,68.0,28.4,23,30.17,10.0,Calm,Calm,-,N/A,,Clear,0,2013-10-26 16:55:00
10:15 AM,71.6,32.0,23,30.17,10.0,Calm,Calm,-,N/A,,Clear,0,2013-10-26 17:15:00
10:35 AM,71.6,28.4,20,30.16,10.0,Calm,Calm,-,N/A,,Clear,0,2013-10-26 17:35:00
10:55 AM,73.4,28.4,19,30.16,10.0,Calm,Calm,-,N/A,,Clear,0,2013-10-26 17:55:00
11:15 AM,75.2,28.4,18,30.16,10.0,Calm,Calm,-,N/A,,Clear,0,2013-10-26 18:15:00
11:35 AM,77.0,26.6,16,30.16,10.0,Calm,Calm,-,N/A,,Clear,0,2013-10-26 18:35:00
11:55 AM,77.0,26.6,16,30.15,10.0,West,6.9,-,N/A,,Clear,260,2013-10-26 18:55:00
12:15 PM,77.0,28.4,17,30.15,10.0,West,5.8,-,N/A,,Clear,260,2013-10-26 19:15:00
12:35 PM,78.8,28.4,16,30.15,10.0,West,4.6,-,N/A,,Clear,260,2013-10-26 19:35:00
12:55 PM,77.0,30.2,18,30.14,10.0,SW,3.5,-,N/A,,Clear,230,2013-10-26 19:55:00
1:15 PM,78.8,32.0,18,30.13,10.0,West,5.8,-,N/A,,Clear,260,2013-10-26 20:15:00
1:35 PM,78.8,30.2,17,30.12,10.0,SSW,4.6,-,N/A,,Clear,210,2013-10-26 20:35:00
1:55 PM,80.6,32.0,17,30.11,10.0,WSW,3.5,-,N/A,,Clear,250,2013-10-26 20:55:00
2:15 PM,78.8,32.0,18,30.11,10.0,West,6.9,-,N/A,,Clear,270,2013-10-26 21:15:00
2:35 PM,78.8,35.6,21,30.10,10.0,West,6.9,-,N/A,,Clear,260,2013-10-26 21:35:00
2:55 PM,77.0,35.6,22,30.10,10.0,SSW,4.6,-,N/A,,Clear,210,2013-10-26 21:55:00
3:15 PM,78.8,35.6,21,30.10,10.0,WSW,5.8,-,N/A,,Clear,250,2013-10-26 22:15:00
3:35 PM,77.0,35.6,22,30.09,10.0,WSW,4.6,-,N/A,,Clear,240,2013-10-26 22:35:00
3:55 PM,78.8,33.8,20,30.09,10.0,Calm,Calm,-,N/A,,Clear,0,2013-10-26 22:55:00
4:15 PM,77.0,35.6,22,30.08,10.0,WSW,4.6,-,N/A,,Clear,240,2013-10-26 23:15:00
4:35 PM,77.0,35.6,22,30.07,10.0,WSW,3.5,-,N/A,,Clear,250,2013-10-26 23:35:00
4:55 PM,77.0,35.6,22,30.07,10.0,WSW,3.5,-,N/A,,Clear,250,2013-10-26 23:55:00
5:15 PM,77.0,35.6,22,30.07,10.0,Calm,Calm,-,N/A,,Clear,0,2013-10-27 00:15:00
5:35 PM,73.4,35.6,25,30.07,10.0,Calm,Calm,-,N/A,,Clear,0,2013-10-27 00:35:00
5:55 PM,69.8,33.8,27,30.07,10.0,Calm,Calm,-,N/A,,Clear,0,2013-10-27 00:55:00
6:15 PM,66.2,35.6,32,30.06,10.0,Calm,Calm,-,N/A,,Clear,0,2013-10-27 01:15:00
6:35 PM,60.8,35.6,39,30.06,10.0,Calm,Calm,-,N/A,,Clear,0,2013-10-27 01:35:00
6:55 PM,59.0,35.6,42,30.07,10.0,Calm,Calm,-,N/A,,Clear,0,2013-10-27 01:55:00
7:15 PM,55.4,35.6,47,30.07,10.0,Calm,Calm,-,N/A,,Clear,0,2013-10-27 02:15:00
7:35 PM,55.4,35.6,47,30.07,10.0,Calm,Calm,-,N/A,,Clear,0,2013-10-27 02:35:00
7:55 PM,55.4,35.6,47,30.07,10.0,Calm,Calm,-,N/A,,Clear,0,2013-10-27 02:55:00
8:15 PM,51.8,35.6,54,30.07,10.0,Calm,Calm,-,N/A,,Clear,0,2013-10-27 03:15:00
8:35 PM,51.8,35.6,54,30.07,10.0,Calm,Calm,-,N/A,,Clear,0,2013-10-27 03:35:00
8:55 PM,50.0,35.6,58,30.06,10.0,Calm,Calm,-,N/A,,Clear,0,2013-10-27 03:55:00
9:15 PM,51.8,35.6,54,30.07,10.0,Calm,Calm,-,N/A,,Clear,0,2013-10-27 04:15:00
9:35 PM,50.0,35.6,58,30.07,10.0,Calm,Calm,-,N/A,,Clear,0,2013-10-27 04:35:00
9:55 PM,50.0,35.6,58,30.07,10.0,Calm,Calm,-,N/A,,Clear,0,2013-10-27 04:55:00
10:15 PM,50.0,35.6,58,30.07,10.0,Calm,Calm,-,N/A,,Clear,0,2013-10-27 05:15:00
10:35 PM,50.0,35.6,58,30.06,10.0,Calm,Calm,-,N/A,,Clear,0,2013-10-27 05:35:00
10:55 PM,50.0,33.8,54,30.06,10.0,Calm,Calm,-,N/A,,Clear,0,2013-10-27 05:55:00
11:15 PM,48.2,33.8,58,30.07,10.0,Calm,Calm,-,N/A,,Clear,0,2013-10-27 06:15:00
11:35 PM,48.2,32.0,54,30.06,10.0,Calm,Calm,-,N/A,,Clear,0,2013-10-27 06:35:00
11:55 PM,48.2,32.0,54,30.06,10.0,Calm,Calm,-,N/A,,Clear,0,2013-10-27 06:55:00